Vorticity
nan nan nan nan nan nan nan nan nan nan nan nan nan nan nan nan nan nan nan nan nan nan nan nan nan nan nan nan nan nan nan nan nan nan nan nan nan nan nan nan nan nan nan nan nan nan nan nan nan nan nan nan nan nan nan nan nan nan nan nan nan nan nan nan nan nan nan nan nan nan nan nan nan nan nan nan nan nan nan nan nan nan nan nan nan nan
nan 8 11 12 8 4 6 11 9 7 7 6 7 8 10 11 10 11 16 16 12 10 9 10 10 10 13 17 15 11 10 9 8 8 9 9 8 8 8 8 8 8 8 8 7 8 7 7 6 6 7 8 9 9 9 10 10 9 9 9 9 9 9 10 10 10 10 11 10 11 11 10 10 10 10 9 9 10 10 10 10 9 8 8 8 nan
nan 7 9 11 8 5 6 9 10 10 9 7 7 9 9 9 7 8 11 14 13 11 9 9 10 11 12 15 16 15 11 9 9 8 8 9 9 8 8 8 8 8 8 8 7 7 7 7 7 7 7 8 9 10 10 10 10 9 9 9 9 10 10 10 10 10 11 11 10 11 10 10 10 10 10 10 10 10 10 11 11 11 10 10 10 nan
nan 7 8 9 9 8 9 9 9 11 11 10 10 11 10 8 8 8 9 10 11 11 11 10 9 9 11 15 17 17 12 10 9 8 8 8 9 9 8 8 8 8 8 7 7 7 7 7 7 7 8 9 9 9 9 9 9 9 9 9 10 10 10 10 10 10 10 10 10 10 10 10 10 11 11 11 12 11 12 12 12 12 12 13 12 nan
nan 8 9 9 9 11 12 10 10 10 10 11 11 11 10 8 8 9 9 10 9 9 11 12 11 9 9 11 13 14 13 10 9 8 8 8 8 8 8 8 8 8 8 8 7 6 6 7 7 8 9 9 9 9 9 8 8 8 8 9 9 9 9 10 10 10 10 10 10 10 10 10 11 12 12 12 12 12 13 12 12 12 13 13 13 nan
nan 9 10 9 9 11 12 12 11 10 10 11 11 11 9 9 9 9 9 9 10 9 10 11 12 11 9 8 10 12 13 12 11 9 9 8 9 9 9 8 8 8 8 7 7 6 6 7 8 9 10 9 9 8 8 8 8 8 8 8 9 9 9 9 10 10 10 10 10 10 10 11 12 12 13 13 13 13 12 12 12 11 12 11 11 nan
nan 9 9 9 9 10 10 11 10 10 9 9 9 10 9 10 10 10 9 9 9 9 10 10 11 12 12 11 13 15 18 19 19 19 16 15 14 13 12 10 9 9 8 7 6 6 7 8 9 10 9 9 8 7 7 7 8 8 8 9 9 9 10 10 10 10 10 10 10 10 10 11 12 12 12 12 12 12 11 11 11 10 10 10 10 nan
nan 7 7 8 8 8 8 9 10 9 9 8 9 9 9 9 11 11 12 10 9 9 9 10 10 11 12 15 17 19 19 22 25 26 26 26 25 22 17 14 12 10 8 7 7 7 8 9 9 9 9 8 7 7 7 7 8 8 9 9 10 10 10 10 10 10 10 10 10 10 10 11 11 11 11 11 11 11 10 10 10 11 10 11 11 nan
nan 6 7 8 7 7 8 9 9 10 10 9 9 9 9 8 9 10 11 11 11 10 10 9 9 10 11 14 17 18 16 14 13 13 15 18 19 18 16 14 13 11 8 8 8 8 9 9 9 9 8 7 7 7 7 8 8 9 10 10 10 10 10 10 10 10 10 10 10 10 10 10 10 10 10 11 10 11 11 11 11 12 11 11 12 nan
nan 7 7 8 8 8 8 9 10 11 11 9 9 9 9 8 8 8 9 9 11 11 11 10 10 10 10 13 15 16 17 16 13 9 4 2 3 3 4 7 8 8 8 9 9 9 10 9 9 8 7 7 7 8 9 9 10 10 10 10 10 10 10 9 9 9 10 10 9 9 10 10 10 10 11 11 11 11 11 11 11 11 11 10 10 nan
nan 10 9 9 9 10 10 10 10 11 10 9 9 10 9 9 9 8 8 8 9 10 11 11 11 10 10 11 13 14 16 19 22 23 19 13 12 9 10 12 11 11 14 15 14 14 12 10 9 8 8 8 9 9 10 11 11 10 10 10 9 9 9 9 9 9 9 9 9 9 9 10 10 11 11 11 11 11 11 10 9 9 9 9 9 nan
nan 11 11 10 9 9 10 11 11 10 9 9 9 10 10 11 11 10 9 9 8 8 10 11 12 11 10 9 11 12 13 14 16 20 24 24 24 24 26 25 24 25 26 25 25 22 17 13 11 11 10 10 10 10 11 11 10 9 9 9 9 9 9 9 9 9 9 8 8 9 9 10 11 11 11 11 11 11 11 10 10 10 10 10 10 nan
nan 9 10 10 9 8 9 9 9 9 8 9 9 10 10 12 13 12 11 10 10 10 10 10 11 12 12 10 9 10 10 10 11 12 13 16 19 21 22 22 23 25 26 26 27 24 18 17 18 17 13 12 11 11 12 11 9 8 8 9 9 9 9 9 9 8 8 8 8 9 9 10 11 11 11 11 11 11 11 11 11 12 12 12 11 nan
nan 8 8 8 8 8 9 9 8 7 8 8 9 10 10 11 12 12 11 10 11 11 10 9 9 10 12 12 10 9 8 9 9 10 9 11 13 13 13 13 13 14 15 15 15 15 15 17 20 20 19 17 15 15 13 10 8 7 8 8 8 8 8 8 8 8 8 8 8 9 10 10 11 11 12 12 12 12 12 12 12 12 12 12 11 nan
nan 9 7 7 7 8 9 10 9 9 8 9 9 10 10 10 10 10 9 9 10 11 10 9 8 9 11 13 12 11 8 7 8 9 10 11 13 13 11 9 9 10 9 8 8 10 14 15 15 16 19 16 11 7 4 4 4 6 7 7 7 8 8 8 8 8 8 8 9 9 10 10 11 12 12 12 13 12 12 12 12 11 11 12 11 nan
nan 9 9 8 7 8 9 9 9 9 10 10 11 11 10 9 9 10 9 9 9 10 9 10 10 11 13 15 14 13 11 9 10 11 11 11 14 16 12 7 7 8 8 8 8 10 14 13 12 11 11 6 2 -0 1 2 3 6 6 7 7 8 8 8 8 8 8 8 8 9 10 10 11 12 13 13 12 12 12 12 11 11 11 12 12 nan
nan 10 11 9 8 8 10 9 9 9 10 10 10 10 10 10 9 9 9 9 9 9 9 9 9 9 12 15 16 16 13 10 10 10 10 10 12 15 12 7 7 7 8 8 8 9 10 11 11 10 7 1 -0 2 4 4 4 6 7 7 8 8 8 8 8 8 8 8 8 9 10 11 12 12 13 12 12 12 12 12 12 12 12 12 11 nan
nan 9 11 10 9 9 9 10 10 9 9 10 10 10 10 10 9 9 8 8 8 7 7 7 8 7 8 9 13 17 15 9 6 7 8 9 11 13 11 7 7 7 8 8 8 9 10 10 8 3 -4 -4 -1 3 4 5 6 7 7 8 8 8 8 8 8 8 8 8 9 9 10 11 12 13 12 12 12 12 12 12 12 12 10 10 11 nan
nan 9 9 10 9 9 9 8 8 8 8 8 9 10 10 11 10 10 8 8 8 8 7 6 5 6 7 7 8 11 11 6 4 5 8 9 10 11 10 9 8 8 8 10 10 10 11 10 8 4 -3 1 4 4 6 6 7 7 7 7 8 8 8 8 9 9 9 9 10 10 11 12 12 12 12 11 11 11 11 11 11 11 11 10 11 nan
nan 7 7 9 10 11 9 9 8 7 6 7 7 8 10 11 11 10 9 9 9 8 8 7 6 5 7 8 8 10 9 7 6 8 10 10 10 10 10 9 9 9 8 10 11 11 11 10 12 13 12 9 7 6 6 7 7 7 7 7 7 7 8 9 9 10 10 10 10 10 11 11 11 11 11 10 10 11 11 11 11 11 12 12 12 nan
nan 7 6 6 7 8 9 11 10 7 5 5 6 8 10 10 10 9 9 10 9 8 7 8 8 7 7 7 9 11 10 8 7 8 10 11 10 9 10 10 10 10 9 10 11 12 12 11 12 14 13 7 5 5 5 6 6 6 6 7 7 8 8 9 10 10 10 10 10 10 10 9 9 9 10 10 10 11 12 12 12 13 13 13 12 nan
nan 9 9 6 4 5 7 10 12 11 7 4 3 5 10 11 10 10 10 9 10 10 8 8 9 9 8 9 8 9 9 7 6 6 7 9 9 9 10 10 10 9 9 10 11 12 11 10 10 9 7 3 3 4 5 6 6 7 6 7 8 8 9 9 10 10 10 10 10 9 9 9 9 10 10 11 12 12 13 13 13 13 13 12 12 nan
nan 7 9 9 7 6 8 10 13 15 14 9 6 2 5 10 10 10 12 12 11 12 11 10 10 10 8 8 8 8 8 8 8 7 7 8 9 10 11 10 9 8 9 9 10 10 10 9 9 10 10 8 7 7 7 7 7 7 7 8 8 9 9 9 10 10 10 9 9 9 9 9 10 11 12 12 13 13 13 12 12 12 12 11 11 nan
nan 8 8 8 8 7 7 8 9 10 12 11 10 8 6 6 7 7 10 12 11 12 13 12 11 10 10 8 7 8 11 11 10 9 8 10 10 11 10 10 9 9 9 10 10 10 10 10 10 11 14 14 12 9 8 7 7 7 8 8 8 9 9 9 9 9 9 9 9 9 10 10 11 12 12 13 13 13 12 12 12 11 11 11 11 nan
nan 6 5 6 5 1 -2 -1 -1 -2 -1 4 8 10 9 8 7 7 8 9 10 10 11 11 9 8 10 11 9 10 15 15 12 8 7 10 12 12 10 10 10 10 10 11 11 10 9 9 10 11 13 16 15 12 10 9 8 8 8 9 9 9 8 8 8 8 8 9 9 10 11 11 12 12 12 12 12 12 12 11 11 11 11 11 12 nan
nan 0 -1 -0 -0 -2 -7 -9 -9 -10 -16 -15 -7 2 9 11 10 9 8 9 9 9 8 7 7 6 7 9 10 11 14 16 14 10 7 8 10 11 11 11 10 9 9 10 10 9 7 8 9 11 11 15 18 18 13 11 10 9 9 9 8 8 8 7 8 8 9 10 10 11 11 12 12 12 12 12 12 12 12 11 11 11 12 15 20 nan
nan -1 -2 -3 -3 -2 -3 -5 -6 -7 -13 -20 -21 -17 -6 5 8 8 6 7 9 8 6 6 6 6 6 7 9 10 11 12 13 14 11 8 9 10 11 10 9 9 10 11 11 9 6 7 8 9 10 13 17 20 18 14 12 11 10 9 8 8 8 8 8 9 10 10 11 11 11 11 11 12 12 12 12 12 12 11 11 13 17 26 36 nan
nan 12 6 3 2 1 1 1 1 1 -2 -7 -13 -21 -18 -4 6 8 7 7 10 9 7 7 7 7 7 8 9 10 10 12 13 14 13 8 9 9 11 10 10 10 11 12 12 12 12 11 11 11 12 11 13 18 22 18 16 15 14 10 9 9 9 10 10 10 10 10 10 10 11 11 11 11 12 12 12 12 12 11 13 19 31 40 40 nan
nan 35 27 19 14 12 10 11 12 13 10 5 0 -8 -15 -7 6 10 11 12 12 11 10 9 9 8 8 9 10 11 12 14 15 13 10 7 8 10 11 11 11 10 10 10 12 15 16 15 14 14 14 12 13 16 20 21 21 21 20 16 16 15 13 11 10 10 10 10 10 10 10 11 11 12 12 12 13 12 11 11 18 30 40 36 27 nan
nan 35 37 34 31 28 25 24 27 29 27 22 16 7 -5 -5 4 10 13 14 14 13 12 11 10 9 9 10 11 13 15 16 16 13 9 6 7 10 11 11 11 10 9 8 10 12 14 14 14 13 12 13 12 12 13 16 18 20 20 21 23 20 14 11 11 11 11 11 11 11 11 12 12 12 12 12 13 12 11 14 22 32 33 24 17 nan
nan 16 21 26 28 28 27 26 28 32 34 34 31 23 9 2 3 6 10 11 11 11 11 11 11 10 9 9 9 11 14 17 16 12 8 6 8 10 11 10 10 10 9 7 7 8 11 13 13 12 9 10 10 9 8 10 12 14 14 18 20 17 11 11 13 14 16 15 14 13 13 13 12 12 12 12 12 12 12 15 21 26 23 16 13 nan
nan 10 10 13 15 17 17 16 17 19 23 26 27 24 17 9 5 4 6 7 8 8 9 9 9 9 10 8 7 6 9 14 15 11 4 4 8 11 10 9 9 10 10 8 5 5 7 8 9 9 8 8 9 10 9 10 10 10 10 12 12 10 11 15 18 20 19 17 17 17 16 15 14 14 13 13 13 13 12 14 18 19 14 12 12 nan
nan 9 9 10 10 11 12 11 11 11 13 14 15 15 15 13 10 7 6 7 7 8 8 8 8 8 9 8 7 5 5 10 13 10 1 -0 6 10 10 9 8 9 10 10 8 7 6 5 5 7 9 10 10 10 11 11 11 10 11 11 10 9 14 18 20 20 17 18 21 21 21 21 20 18 16 16 15 15 13 14 14 12 6 8 9 nan
nan 10 9 10 10 10 10 11 11 11 11 11 11 11 11 12 13 12 9 9 9 9 9 9 9 8 7 8 8 7 6 10 12 10 2 -2 3 7 9 9 9 9 9 10 10 9 9 6 4 5 8 11 11 10 11 12 12 13 13 10 9 9 13 15 16 14 13 16 19 20 22 24 23 22 21 19 17 14 11 11 9 7 5 4 3 nan
nan 13 11 11 10 10 10 11 11 11 11 11 12 12 11 11 12 13 13 11 10 9 9 10 10 9 7 6 7 7 8 12 15 12 4 1 3 7 9 10 9 9 8 8 8 9 10 9 6 3 4 7 10 11 12 12 12 12 10 9 7 7 9 10 10 11 12 13 14 14 16 17 18 19 18 13 10 7 6 8 9 9 10 5 3 nan
nan 13 12 11 11 10 10 11 11 11 11 11 12 12 12 11 11 11 12 12 12 10 9 8 9 9 8 7 6 6 6 10 14 14 7 4 5 6 8 10 9 8 7 8 8 7 8 8 9 7 6 7 9 11 12 12 11 10 8 8 8 8 8 8 9 10 11 10 10 10 10 10 11 11 8 3 5 8 10 12 13 15 14 12 9 nan
nan 12 11 11 11 11 10 10 11 11 11 11 12 12 11 11 11 10 11 11 11 11 11 11 10 10 5 3 4 4 5 6 10 12 11 7 7 6 5 8 8 7 7 7 7 7 7 7 9 11 12 10 8 6 6 8 9 8 7 7 8 9 10 10 11 11 10 8 7 7 6 7 9 9 6 9 16 21 23 25 25 22 19 19 15 nan
nan 10 10 9 9 10 10 10 10 11 11 10 11 12 12 12 11 10 10 12 11 10 10 11 12 16 12 5 3 1 3 4 7 10 11 8 7 6 5 6 8 7 6 6 6 7 7 8 9 11 13 11 7 4 5 7 7 7 8 8 9 10 11 12 12 11 9 8 7 6 8 10 11 12 11 18 23 24 26 27 24 21 23 26 24 nan
nan 9 9 8 8 8 9 10 10 11 12 11 10 10 13 14 14 12 11 12 12 12 10 9 10 14 17 14 11 7 5 7 9 10 11 8 6 7 7 6 8 8 7 6 7 7 7 8 8 7 6 9 10 10 11 8 7 7 7 11 13 14 13 11 10 10 9 9 9 10 13 13 12 11 11 13 14 13 15 15 15 17 22 25 25 nan
nan 9 10 10 8 7 8 9 10 11 12 13 13 11 10 11 14 15 13 12 12 13 13 11 9 11 14 16 16 15 12 11 11 10 11 9 7 7 8 7 8 9 9 8 8 8 7 6 6 5 5 5 7 8 7 6 5 3 4 10 11 10 8 7 8 10 10 10 11 11 11 10 8 8 9 9 9 10 11 11 10 11 15 17 19 nan
nan 8 9 11 13 12 10 10 10 10 10 12 12 12 10 9 10 12 13 13 13 13 14 13 12 11 12 13 14 16 14 11 11 8 8 9 7 5 6 7 9 10 10 9 8 8 7 6 6 8 8 7 7 7 7 6 4 4 8 9 6 3 5 8 12 14 13 10 10 8 5 6 8 10 10 10 11 11 9 7 6 7 11 14 13 nan
nan 8 9 10 11 13 14 13 13 11 10 10 10 10 10 9 9 9 10 11 12 12 11 12 12 12 12 12 13 14 15 13 13 10 7 8 7 5 4 5 6 9 11 11 10 9 8 7 7 8 9 9 10 10 9 9 10 11 12 8 6 8 15 18 18 15 11 8 8 7 9 11 12 11 10 11 11 11 10 7 5 6 10 13 12 nan
nan 10 11 11 11 14 14 12 11 10 9 9 10 10 10 10 10 9 8 9 10 11 10 10 10 10 10 10 11 14 16 17 16 14 11 10 9 8 6 6 5 6 8 11 12 11 11 9 8 9 9 9 9 7 8 10 11 12 11 8 8 11 15 15 13 9 7 7 8 10 12 12 11 10 9 10 11 11 11 11 12 14 14 12 11 nan
nan 13 12 12 12 12 13 11 11 11 10 9 10 10 11 12 12 10 8 8 10 10 10 10 11 12 11 11 10 10 14 18 20 20 19 14 9 5 7 9 9 8 6 6 9 10 12 13 12 10 10 10 9 8 9 8 9 10 9 9 9 9 5 4 5 6 7 9 10 9 8 9 9 9 9 11 11 11 12 14 15 15 14 14 13 nan
nan 16 15 13 12 12 10 10 10 11 11 11 10 11 12 14 13 11 8 8 9 10 9 9 10 12 12 12 12 11 12 14 17 19 24 26 22 14 9 10 11 12 10 7 7 7 8 10 11 12 12 11 9 9 8 8 8 9 9 9 11 12 9 5 6 8 8 8 8 8 8 9 8 8 10 11 11 11 10 10 10 11 13 13 12 nan
nan 16 15 14 14 14 12 10 10 10 11 12 11 11 12 13 12 12 11 8 9 10 10 9 8 8 8 8 9 10 10 10 11 13 16 23 26 26 20 15 12 10 11 11 10 8 6 6 7 9 10 11 11 11 9 8 9 9 10 12 13 13 13 12 11 10 9 8 8 9 10 10 10 9 9 9 10 11 11 11 11 11 11 12 12 nan
nan 14 13 12 13 13 14 13 12 11 11 11 10 11 11 11 11 11 12 11 10 10 10 10 9 8 6 6 6 7 7 6 8 9 11 14 16 17 19 19 17 13 10 10 10 10 8 7 6 6 7 9 11 12 11 10 9 9 10 12 13 12 11 12 12 11 10 10 9 9 12 12 10 9 8 10 11 12 12 12 11 12 12 12 12 nan
nan 11 10 10 10 11 11 11 11 10 9 8 10 11 12 11 9 6 9 12 11 11 10 9 9 9 9 8 7 6 5 6 7 8 9 11 12 13 13 14 16 17 14 13 13 12 12 11 9 7 6 6 7 8 9 11 11 11 11 11 12 11 10 10 10 11 12 11 10 10 11 9 8 7 9 11 12 11 10 10 12 13 13 12 12 nan
nan 10 10 9 9 9 9 10 10 9 8 7 8 9 12 14 12 6 6 10 10 10 11 10 9 9 9 9 9 8 8 9 10 10 10 11 11 11 11 11 11 12 13 15 15 15 17 19 17 12 6 3 2 4 8 10 11 11 12 11 11 12 12 11 11 12 12 11 11 11 10 7 7 7 10 10 9 8 8 11 12 13 13 13 11 nan
nan 11 11 10 10 9 10 10 10 9 9 8 8 8 10 12 13 12 10 9 9 9 10 10 9 8 8 8 8 9 10 11 10 10 9 11 11 10 10 10 9 9 10 12 13 13 16 20 24 24 17 5 -1 -2 5 9 11 12 12 11 12 12 12 12 12 12 9 9 11 11 8 7 7 10 11 11 10 10 11 12 12 12 12 11 10 nan
nan nan nan nan nan nan nan nan nan nan nan nan nan nan nan nan nan nan nan nan nan nan nan nan nan nan nan nan nan nan nan nan nan nan nan nan nan nan nan nan nan nan nan nan nan nan nan nan nan nan nan nan nan nan nan nan nan nan nan nan nan nan nan nan nan nan nan nan nan nan nan nan nan nan nan nan nan nan nan nan nan nan nan nan nan nan
CAPE
nan nan nan nan nan nan nan nan nan nan nan nan nan nan nan nan nan nan nan nan nan nan nan nan nan nan nan nan nan nan 2 5 9 9 13 18 25 25 29 38 38 44 48 52 52 59 66 77 77 81 86 90 84 84 89 88 88 96 96 102 102 106 117 120 120 130 141 157 183 183 216 246 265 265 300 315 333 333 330 332 332 322 310 309 309 303
nan nan nan nan nan nan nan nan nan nan nan nan nan nan nan nan nan nan nan nan nan nan nan nan nan nan nan nan nan nan 0 3 7 7 13 19 26 26 33 39 39 44 50 55 55 61 69 81 81 79 72 68 65 65 68 74 74 83 89 98 98 105 112 119 119 132 138 149 173 173 203 232 258 258 280 298 292 292 289 284 284 267 248 239 239 236
nan nan nan nan nan nan nan nan nan nan nan nan nan nan nan nan nan nan nan nan nan nan nan nan nan nan nan nan nan nan 0 3 8 8 14 21 27 27 35 42 42 46 50 58 58 65 71 69 69 61 57 56 58 58 62 68 68 74 81 90 90 93 100 112 112 117 126 133 148 148 171 194 208 208 221 226 221 221 216 215 215 221 210 217 217 214
nan nan nan nan nan nan nan nan nan nan nan nan nan nan nan nan nan nan nan nan nan nan nan nan nan nan nan nan nan nan 0 2 8 8 14 21 28 28 36 44 44 48 57 63 63 66 61 55 55 49 49 54 57 57 60 67 67 70 74 78 78 83 89 92 92 92 96 112 124 124 141 151 161 161 173 173 179 179 184 199 199 220 235 235 235 243
nan nan nan nan nan nan nan nan nan nan nan nan nan nan nan nan nan nan nan nan nan nan nan nan nan nan nan nan nan nan 0 2 8 8 17 24 32 32 41 49 49 52 59 59 59 56 50 45 45 45 51 53 59 59 63 64 64 66 68 68 68 71 73 79 79 81 82 92 101 101 114 126 140 140 152 166 173 173 187 204 204 230 252 263 263 273
nan nan nan nan nan nan nan nan nan nan nan nan nan nan nan nan nan nan nan nan nan nan nan nan nan nan nan nan nan nan 0 3 11 11 19 26 36 36 44 50 50 54 55 51 51 45 41 41 41 45 49 55 57 57 57 59 59 60 60 61 61 66 70 76 76 76 79 83 91 91 99 113 129 129 146 158 169 169 180 200 200 235 254 265 265 271
nan nan nan nan nan nan nan nan nan nan nan nan nan nan nan nan nan nan nan nan nan nan nan nan nan nan nan nan nan nan 0 4 13 13 19 27 38 38 45 48 48 51 45 40 40 35 36 39 39 45 48 51 55 55 54 56 56 55 56 55 55 59 65 69 69 72 78 85 89 89 95 106 122 122 139 151 154 154 161 176 176 210 232 247 247 254
nan nan nan nan nan nan nan nan nan nan nan nan nan nan nan nan nan nan nan nan nan nan nan nan nan nan nan nan nan nan nan nan nan nan nan nan 12 12 19 26 26 28 29 29 29 31 34 35 35 38 39 37 39 39 41 43 43 43 44 45 45 46 54 61 61 63 65 74 82 82 93 104 112 112 122 126 136 136 150 163 163 187 200 230 230 267
nan nan nan nan nan nan nan nan nan nan nan nan nan nan nan nan nan nan nan nan nan nan nan nan nan nan nan nan nan nan nan nan nan nan nan nan nan nan 1 15 15 22 26 27 27 26 27 29 29 32 32 31 33 33 36 38 38 40 41 40 40 44 51 57 57 61 64 72 80 80 92 104 111 111 129 140 152 152 159 167 167 189 208 243 243 299
nan nan nan nan nan nan nan nan nan nan nan nan nan nan nan nan nan nan nan nan nan nan nan nan nan nan nan nan nan nan nan nan 4 4 18 7 18 18 8 8 8 8 19 19 19 20 21 22 22 24 24 25 28 28 31 33 33 34 34 36 36 38 44 52 52 61 65 74 85 85 97 113 128 128 137 151 160 160 164 171 171 178 197 221 221 256
nan nan nan nan nan nan nan nan nan nan nan nan nan nan nan nan nan nan nan nan nan nan nan nan nan nan nan nan nan nan nan nan nan nan nan 4 9 9 11 6 6 8 9 9 9 9 10 13 13 14 16 19 21 21 21 24 24 26 28 28 28 32 37 45 45 56 68 82 100 100 107 123 137 137 144 146 153 153 159 164 164 167 176 182 182 207
nan nan nan nan nan nan nan nan nan nan nan nan nan nan nan nan nan nan nan nan nan nan nan nan nan nan nan nan nan nan nan nan nan nan nan nan nan nan nan nan nan nan nan nan nan 0 3 6 6 8 9 10 15 15 15 12 12 16 19 22 22 28 35 46 46 60 76 94 106 106 116 128 138 138 141 143 146 146 149 151 151 157 169 175 175 207
nan nan nan nan nan nan nan nan nan nan nan nan nan nan nan nan nan nan nan nan nan nan nan nan nan nan nan nan nan nan nan nan nan nan nan nan nan nan nan nan nan nan nan nan nan nan nan 1 1 3 6 5 7 7 9 7 7 10 14 20 20 28 38 50 50 67 80 97 107 107 117 128 132 132 137 143 145 145 148 158 158 175 193 208 208 232
nan nan nan nan nan nan nan nan nan nan nan nan nan nan nan nan nan nan nan nan nan nan nan nan nan nan nan nan nan nan nan nan nan nan nan nan nan nan nan nan nan nan nan nan nan nan nan nan nan nan nan nan 0 0 0 3 3 9 15 23 23 34 45 56 56 67 81 95 105 105 115 129 137 137 142 149 158 158 159 174 174 185 203 213 213 228
nan nan nan nan nan nan nan nan nan nan nan nan nan nan nan nan nan nan nan nan nan nan nan nan nan nan nan nan nan nan nan nan nan nan nan nan nan nan nan nan nan nan nan nan nan nan nan nan nan nan nan nan nan nan nan 1 1 14 17 27 27 36 47 57 57 67 81 93 103 103 114 125 132 132 141 147 152 152 160 167 167 179 193 204 204 220
nan nan nan nan nan nan nan nan nan nan nan nan nan nan nan nan nan nan nan nan nan nan nan nan nan nan nan nan nan nan nan nan nan nan nan nan nan nan nan nan nan nan nan nan nan nan nan nan nan nan nan nan nan nan 2 4 4 14 20 31 31 39 48 56 56 67 79 92 100 100 111 122 130 130 134 142 148 148 151 155 155 167 186 201 201 227
nan nan nan nan nan nan nan nan nan nan nan nan nan nan nan nan nan nan nan nan nan nan nan nan nan nan nan nan nan nan nan nan nan nan nan nan nan nan nan nan nan nan nan nan nan nan nan nan nan nan nan nan 0 0 3 8 8 15 23 33 33 40 47 56 56 67 78 90 99 99 108 115 122 122 125 136 142 142 151 158 158 171 194 222 222 250
nan nan nan nan nan nan nan nan nan nan nan nan nan nan nan nan nan nan nan nan nan nan nan nan nan nan nan nan nan nan nan nan nan nan nan nan nan nan nan nan nan nan nan nan nan nan nan nan nan nan nan nan 2 2 5 10 10 17 24 32 32 40 49 61 61 68 77 89 96 96 106 112 119 119 124 135 143 143 160 176 176 195 204 218 218 226
nan nan nan nan nan nan nan nan nan nan nan nan nan nan nan nan nan nan nan nan nan nan nan nan nan nan nan nan nan nan nan nan nan nan nan nan nan nan nan nan nan nan nan nan nan nan nan nan nan nan nan 0 3 3 7 11 11 16 25 32 32 42 51 60 60 70 79 86 93 93 99 104 113 113 125 138 149 149 163 171 171 184 184 188 188 199
nan nan nan nan nan nan nan nan nan nan nan nan nan nan nan nan nan nan nan nan nan nan nan nan nan nan nan nan nan nan nan nan nan nan nan nan nan nan nan nan nan nan nan nan nan nan nan nan nan nan nan nan 3 3 7 12 12 18 28 35 35 44 51 60 60 69 73 79 90 90 92 97 113 113 122 133 145 145 150 153 153 156 166 178 178 195
nan nan nan nan nan nan nan nan nan nan nan nan nan nan nan nan nan nan nan nan nan nan nan nan nan nan nan nan nan nan nan nan nan nan nan nan nan nan nan nan nan nan nan nan nan nan nan nan nan nan nan nan 3 3 8 14 14 21 29 37 37 44 49 56 56 62 68 75 82 82 89 96 108 108 118 129 134 134 141 143 143 152 164 179 179 198
nan nan nan nan nan nan nan nan nan nan nan nan nan nan nan nan nan nan nan nan nan nan nan nan nan nan nan nan nan nan nan nan nan nan nan nan nan nan nan nan nan nan nan nan nan nan nan nan nan nan nan 0 5 5 11 15 15 22 29 37 37 43 47 52 52 56 64 69 77 77 86 93 105 105 114 123 130 130 137 143 143 155 169 182 182 199
nan nan nan nan nan nan nan nan nan nan nan nan nan nan nan nan nan nan nan nan nan nan nan nan nan nan nan nan nan nan nan nan nan nan nan nan nan nan nan nan nan nan nan nan nan nan nan nan nan nan nan 2 5 5 11 17 17 24 31 35 35 38 42 46 46 51 59 67 75 75 82 87 96 96 105 117 127 127 135 151 151 162 174 186 186 203
nan nan nan nan nan nan nan nan nan nan nan nan nan nan nan nan nan nan nan nan nan nan nan nan nan nan nan nan nan nan nan nan nan nan nan nan nan nan nan nan nan nan nan nan nan nan nan nan nan nan nan nan 6 6 13 20 20 27 33 33 33 34 35 39 39 46 54 61 71 71 77 83 90 90 100 112 118 118 133 148 148 163 175 182 182 204
nan nan nan nan nan nan nan nan nan nan nan nan nan nan nan nan nan nan nan nan nan nan nan nan nan nan nan nan nan nan nan nan nan nan nan nan nan nan nan nan nan nan nan nan nan nan nan nan nan nan nan nan 5 5 15 23 23 29 30 29 29 28 33 36 36 43 50 57 66 66 75 83 87 87 95 105 119 119 130 141 141 159 165 171 171 184
nan nan nan nan nan 1 2 0 0 0 nan nan nan nan nan nan nan nan nan nan nan nan nan nan nan nan nan nan nan nan nan nan nan nan nan nan nan nan nan nan nan nan nan nan nan nan nan nan nan nan nan nan 4 4 14 22 22 27 26 25 25 27 30 34 34 39 46 51 60 60 69 76 84 84 91 99 112 112 124 134 134 145 150 153 153 159
39 19 15 15 15 19 21 18 19 19 20 6 nan nan nan nan nan nan nan nan nan nan nan nan nan nan nan nan nan nan nan nan nan nan nan nan nan nan nan nan nan nan nan nan nan nan nan nan nan nan nan nan nan nan 9 19 19 24 25 25 25 26 28 29 29 34 40 47 59 59 67 73 79 79 88 94 100 100 110 118 118 124 129 125 125 140
134 77 41 34 34 30 30 31 34 34 40 46 40 40 2 nan nan nan nan nan nan nan nan nan nan nan nan nan nan nan nan nan nan nan nan nan nan nan nan nan nan nan nan nan nan nan nan nan nan nan nan nan nan nan nan 13 13 20 23 22 22 22 22 25 25 29 33 40 52 52 64 71 77 77 80 86 94 94 101 105 105 111 118 95 95 51
167 142 90 59 59 46 43 47 49 49 55 66 79 79 29 nan nan nan nan nan nan nan nan nan nan nan nan nan nan nan nan nan nan nan nan nan nan nan nan nan nan nan nan nan nan nan nan nan nan nan nan nan nan nan nan 8 8 17 19 17 17 18 17 19 19 23 29 36 46 46 56 63 67 67 74 77 84 84 89 95 95 100 88 69 69 37
35 93 131 121 121 109 80 44 63 63 89 94 112 112 85 nan nan nan nan nan nan nan nan nan nan nan nan nan nan nan nan nan nan nan nan nan nan nan nan nan nan nan nan nan nan nan nan nan nan nan nan nan nan nan nan nan nan nan nan 9 9 10 14 17 17 21 24 33 40 40 51 57 59 59 64 69 77 77 83 88 88 75 44 27 27 30
nan nan nan 6 6 24 20 4 44 44 114 149 155 155 113 2 0 0 nan nan nan nan nan nan nan nan nan nan nan nan nan nan nan nan nan nan nan nan nan nan nan nan nan nan nan nan nan nan nan nan nan nan nan nan nan nan nan nan nan nan nan nan 8 13 13 17 21 25 33 33 41 49 55 55 57 62 67 67 75 79 79 65 27 19 19 24
nan nan nan nan nan nan nan nan nan nan nan nan nan nan nan nan nan nan nan nan nan nan nan nan nan nan nan nan nan nan nan nan nan nan nan nan nan nan nan nan nan nan nan nan nan nan nan nan nan nan nan nan nan nan nan nan nan nan nan nan nan nan nan 3 3 3 2 10 18 18 26 34 42 42 46 52 57 57 63 65 65 62 33 18 18 25
nan nan nan nan nan nan nan nan nan nan nan nan nan nan nan nan nan nan nan nan nan nan nan nan nan nan nan nan nan nan nan nan nan nan nan nan nan nan nan nan nan nan nan nan nan nan nan nan nan nan nan nan nan nan nan nan nan nan nan nan nan nan nan nan nan nan nan 0 3 3 16 26 35 35 42 46 52 52 59 65 65 70 65 24 24 30
nan nan nan nan nan nan nan nan nan nan nan nan nan nan nan nan nan nan nan nan nan nan nan nan nan nan nan nan nan nan nan nan nan nan nan nan nan nan nan nan nan nan nan nan nan nan nan nan nan nan nan nan nan nan nan nan nan nan nan nan nan nan nan nan nan nan nan nan nan nan nan nan 17 17 24 34 42 42 56 64 64 71 74 53 53 31
nan nan nan nan nan nan nan nan nan nan nan nan nan nan nan nan nan nan nan nan nan nan nan nan nan nan nan nan nan nan nan nan nan nan nan nan nan nan nan nan nan nan nan nan nan nan nan nan nan 1 nan nan nan nan nan nan nan nan nan nan nan nan nan nan nan nan nan nan nan nan nan nan nan nan 2 22 38 38 53 61 61 65 67 75 75 56
nan nan nan nan nan nan nan nan nan nan nan nan nan nan nan nan nan nan nan nan nan nan nan nan nan nan nan nan nan nan nan nan nan nan nan nan nan nan nan nan nan nan nan nan nan nan nan nan nan 2 4 nan nan nan nan nan nan nan nan nan nan nan nan nan nan nan nan nan nan nan nan nan nan nan nan 26 42 42 50 52 52 55 56 64 64 64
1 nan nan nan nan nan nan nan nan nan nan nan nan nan nan nan nan nan nan nan nan nan nan nan nan nan nan nan nan nan nan nan nan nan nan nan nan nan nan nan nan nan nan nan nan nan nan nan nan nan nan nan nan nan nan nan nan nan nan nan nan nan nan nan nan nan nan nan nan nan nan nan nan nan 0 24 28 28 36 46 46 45 51 54 54 58
1 1 nan nan nan nan nan nan nan nan nan nan nan nan nan nan nan nan nan nan nan nan nan nan nan nan nan nan nan nan nan nan nan nan nan nan nan nan nan nan nan nan nan nan nan nan nan nan nan nan nan nan nan nan 0 nan nan nan nan nan nan nan nan nan nan nan nan nan nan nan nan nan nan nan nan 0 0 0 3 4 4 22 39 40 40 48
nan nan nan nan nan nan nan nan nan nan nan nan nan nan nan nan nan nan nan nan nan nan nan nan nan nan nan nan nan nan nan nan nan nan nan nan nan nan nan nan nan nan nan nan nan nan nan nan nan nan nan nan nan nan nan nan nan nan nan nan nan nan nan nan nan nan nan nan nan nan nan nan nan nan nan nan nan nan 1 2 2 10 11 6 6 24
nan nan nan 0 0 nan nan nan nan nan nan nan nan nan nan nan nan nan nan nan nan nan nan nan nan nan nan nan nan nan nan nan nan nan nan nan nan nan nan nan nan nan nan nan nan nan nan nan nan nan nan nan nan nan nan nan nan nan 1 nan nan nan nan nan nan nan nan nan nan nan nan nan nan nan nan nan nan nan 0 0 0 3 8 5 5 3
nan nan nan nan nan nan nan nan nan nan nan nan nan nan nan nan nan nan nan nan nan nan nan nan nan nan nan nan nan nan nan nan nan nan nan nan nan nan nan nan nan nan nan nan nan nan nan nan nan nan nan nan nan nan nan nan nan 4 8 nan nan nan nan nan nan nan nan nan nan nan nan nan nan nan nan nan nan nan 0 1 1 3 8 4 4 4
2 nan nan nan nan nan nan nan nan nan nan nan nan nan nan nan nan nan nan nan nan nan nan nan nan nan nan nan nan nan nan nan nan nan nan nan nan nan nan nan nan nan nan nan nan nan nan nan nan nan nan nan nan nan nan nan nan 0 2 nan nan nan nan nan nan nan nan nan nan nan nan nan nan nan nan nan nan nan 3 4 4 16 17 6 6 4
0 nan nan nan nan nan nan nan nan nan nan nan nan nan nan nan nan nan nan nan nan nan nan nan nan nan nan nan nan nan nan nan nan nan nan nan nan nan nan nan nan nan nan nan nan nan nan nan nan nan nan nan nan nan nan nan nan nan nan nan nan nan nan nan nan nan nan nan nan nan nan nan nan nan nan 0 0 0 2 10 10 24 19 4 4 3
1 nan nan nan nan nan nan nan nan nan nan nan nan nan nan nan nan nan nan nan nan nan nan nan nan nan nan nan nan nan nan nan nan nan nan nan nan nan nan nan nan nan nan nan nan nan nan nan nan nan nan nan nan nan nan nan nan nan nan nan nan nan nan nan nan nan nan nan nan nan nan nan nan nan nan nan nan nan nan 0 0 nan 2 1 1 1
nan nan nan nan nan nan nan nan nan nan nan nan nan nan nan nan nan nan nan nan nan nan nan nan nan nan nan nan nan nan nan nan nan nan nan nan nan nan nan nan nan nan nan nan nan nan nan nan nan nan nan nan nan nan nan nan nan nan nan nan nan nan nan nan nan nan nan nan nan nan nan nan nan nan nan nan nan nan nan nan nan nan nan nan nan 0
nan nan nan nan nan nan nan nan nan nan nan nan nan nan nan nan nan nan nan nan nan nan nan nan nan nan nan nan nan nan nan nan nan nan nan nan nan nan nan nan nan nan nan nan nan nan nan nan nan nan nan nan nan nan nan nan nan nan nan nan nan nan nan nan nan nan nan nan nan nan nan nan nan nan nan nan nan nan nan nan nan nan nan nan nan nan
nan nan nan nan nan nan nan nan nan nan nan nan nan nan nan nan nan nan nan nan nan nan nan nan nan nan nan nan nan nan nan nan nan nan nan nan nan nan nan nan nan nan nan nan nan nan nan nan nan nan nan nan nan nan nan nan nan nan nan nan nan nan nan nan nan nan nan nan nan nan nan nan nan nan nan nan nan nan nan nan nan nan nan nan nan nan
nan nan nan nan nan nan nan nan nan nan nan nan nan nan nan nan nan nan nan nan nan nan nan nan nan nan nan nan nan nan nan nan nan nan nan nan nan nan nan nan nan nan nan nan nan nan nan nan nan nan nan nan nan nan nan nan nan nan nan nan nan nan nan nan nan nan nan nan nan nan nan nan nan nan nan nan nan nan nan nan nan nan nan nan nan nan
nan nan nan nan nan nan nan nan nan nan nan nan nan nan nan nan nan nan nan nan nan nan nan nan nan nan nan nan nan nan nan nan nan nan nan nan nan nan nan nan nan nan nan nan nan nan nan nan nan nan nan nan nan nan nan nan nan nan nan nan nan nan nan nan nan nan nan nan nan nan nan nan nan nan nan nan nan nan nan nan nan nan nan nan nan nan
nan nan nan nan nan nan nan nan nan nan nan nan nan nan nan nan nan nan nan nan nan nan nan nan nan nan nan nan nan nan nan nan nan nan 0 nan nan nan nan nan nan nan nan nan nan nan nan nan nan nan 1 nan nan nan nan nan nan nan nan nan nan nan nan nan nan nan nan nan nan nan nan nan nan nan nan nan nan nan nan nan nan nan nan nan nan nan
nan nan nan nan nan nan nan nan nan nan nan nan nan nan nan nan nan nan nan nan nan nan nan nan nan nan nan nan nan nan nan nan nan nan 1 0 0 0 1 0 0 nan nan nan nan nan nan nan nan nan 7 40 9 9 nan nan nan nan nan nan nan nan nan nan nan nan nan nan nan nan nan nan nan nan nan nan nan nan nan nan nan nan nan nan nan nan